Regional Weather Roundup
Issued by NWS

Home | Current Version | Previous Version | Text Only | Print | Product List | Glossary On
Versions: 1 2 3 4 5 6 7 8 9 10 11 12 13 14 15 16 17 18 19 20 21 22 23 24 25 26 27 28 29 30 31 32 33 34 35 36 37 38 39 40 41 42 43 44 45 46 47 48 49 50
000
ASUS43 KMKX 032011
RWRWI

WISCONSIN REGIONAL WEATHER ROUNDUP
NATIONAL WEATHER SERVICE MILWAUKEE/SULLIVAN WI
300 PM CDT THU SEP 03 2015

NOTE: "FAIR" INDICATES FEW OR NO CLOUDS BELOW 12,000 FEET WITH NO
SIGNIFICANT WEATHER AND/OR OBSTRUCTIONS TO VISIBILITY.

WIZ001-002-006>008-014>016-023>028-032100-
NORTHWEST WISCONSIN

CITY           SKY/WX    TMP DP  RH WIND       PRES   REMARKS
SUPERIOR ARPT  CLOUDY    62  60  92 NE10      29.98S
ASHLAND        SUNNY     72  66  81 NE12      29.98S
HAYWARD        SUNNY     80  65  59 E9        29.96F HX  82
SIREN          SUNNY     82  65  57 E5        29.93F HX  83
CUMBERLAND     SUNNY     79  64  61 SE6       29.95F HX  81
RICE LAKE      SUNNY     80  66  61 SE9       29.95F HX  82
CHETEK         MOSUNNY   81  68  65 SE5       29.94F HX  83
LADYSMITH      MOSUNNY   81  65  59 CALM      29.97F HX  83
EAU CLAIRE     SUNNY     81  67  62 SE7       29.92F HX  83
MENOMONIE      SUNNY     82  68  63 NE6       29.93S HX  84
NEW RICHMOND   SUNNY     80  68  67 E7        29.92F HX  83
OSCEOLA        SUNNY     82  69  65 E10       29.94F HX  85
$$

WIZ003>005-009-010-017-018-032100-
NORTH CENTRAL WISCONSIN

CITY           SKY/WX    TMP DP  RH WIND       PRES   REMARKS
MANITOWISH WTR PTSUNNY   77  64  65 NE6       29.99S
ARBOR VITAE    MOSUNNY   80  65  59 SE6       29.98F HX  81
WOODRUFF       MOSUNNY   80  65  59 SE6       29.98F HX  81
RHINELANDER    PTSUNNY   78  64  61 VRB3      29.99F HX  80
EAGLE RIVER    PTSUNNY   79  61  54 E6        29.98F HX  80
LAND O LAKES   SUNNY     80  62  54 E8        30.00F HX  81
PHILLIPS       MOSUNNY   79  65  61 E6        29.96F HX  81
TOMAHAWK       MOSUNNY   76  64  67 CALM      29.98F
MEDFORD        CLOUDY    73  66  78 SE6       29.98F
MERRILL        PTSUNNY   76  66  71 CALM      29.97F
$$

WIZ029-030-035-036-043>047-032100-
CENTRAL WISCONSIN

CITY           SKY/WX    TMP DP  RH WIND       PRES   REMARKS
WAUSAU         PTSUNNY   77  65  66 E8        29.96F
MOSINEE        CLOUDY    73  66  78 E5        29.99S
MARSHFIELD     CLOUDY    76  64  66 VRB5      29.97F
STEVENS POINT  CLOUDY    74  65  75 E6        29.97S
WAUPACA        CLOUDY    77  68  74 N5        29.96S
WAUTOMA        PTSUNNY   80  69  69 NE8       29.95S HX  83
WISC RAPIDS    MOSUNNY   80  65  59 E6        29.96F HX  82
CAMP DOUGLAS   MOSUNNY   84  73  70 VRB3      29.92F HX  91
$$

WIZ011>013-019>022-031-037>040-048>050-032100-
NORTHEAST WISCONSIN

CITY           SKY/WX    TMP DP  RH WIND       PRES   REMARKS
ANTIGO         CLOUDY    73  65  76 E7        29.99S
SHAWANO        NOT AVBL
OCONTO         PTSUNNY   74  70  85 N5        29.94S
STURGEON BAY   PTSUNNY   72  64  78 N13       29.96S
GREEN BAY      CLOUDY    76  67  73 VRB3      29.94S
MANITOWOC      CLOUDY    75  67  76 MISG      29.93S
APPLETON       CLOUDY    73  64  73 N7        29.94
CLINTONVILLE   CLOUDY    73  64  73 NE6       29.96S
OSHKOSH        CLOUDY    74  66  76 NE8       29.94F
$$

WIZ032>034-041-042-053>061-032100-
SOUTHWEST WISCONSIN

CITY           SKY/WX    TMP DP  RH WIND       PRES   REMARKS
LA CROSSE      SUNNY     88  73  61 E8        29.89F HX  95
SPARTA         SUNNY     85  67  53 E6        29.92F HX  88
VIROQUA          N/A     88  71  57 CALM      29.93S HX  93
BOSCOBEL       SUNNY     92  71  50 CALM      29.89F HX  98
PRAIRIE DU CHI SUNNY     89  67  49 CALM      29.88F HX  92
PLATTEVILLE    SUNNY     87  73  62 SW3       29.91F HX  94
$$

WIZ056-057-062-063-064-067-068-032100-
SOUTH CENTRAL WISCONSIN

CITY           SKY/WX    TMP DP  RH WIND       PRES   REMARKS
REEDSBURG      PTSUNNY   85  73  68 NE6       29.91F HX  92
BARABOO/DELLS  PTSUNNY   81  69  65 CALM      29.93S HX  84
LONE ROCK      PTSUNNY   88  70  55 CALM      29.90F HX  93
MINERAL POINT  PTSUNNY   88  72  58 S3        29.92F HX  94
MADISON        PTSUNNY   85  73  67 N9        29.90F HX  91
MIDDLETON      PTSUNNY  N/A N/A N/A E3        29.91F
WATERTOWN      MOSUNNY   83  75  77 N3        29.91S HX  90
MONROE         PTSUNNY   86  72  62 SW9       29.92F HX  92
JANESVILLE     PTSUNNY   88  70  55 CALM      29.90F HX  92
$$

WIZ051-052-058>065-066-070>072-032100-
SOUTHEAST WISCONSIN

CITY           SKY/WX    TMP DP  RH WIND       PRES   REMARKS
MILWAUKEE      PTSUNNY   78  70  76 NE10      29.91S HX  80
WAUKESHA       MOSUNNY   82  70  65 W9        29.92F HX  86
MILWAUKEE/TIMM PTSUNNY   81  68  65 CALM      29.91F HX  83
RACINE         LGT RAIN  80  69  69 N9        29.91F HX  83
BURLINGTON     SUNNY     84  71  63 W7        29.90F HX  88
KENOSHA        MOSUNNY   85  72  65 W8        29.90F HX  91
FOND DU LAC    PTSUNNY   76  67  73 NE10      29.95S
SHEBOYGAN      CLOUDY    75  67  76 N10       29.93S
WEST BEND      MOSUNNY   77  64  65 NW9       29.93F
JUNEAU         MOSUNNY   78  70  76 N6        29.94F HX  80
$$

LSZ147-162-032100-
LAKE SUPERIOR

STATION/POSITION TIME  TEMP    WIND        PRES    WAVE
                       AIR SEA DIR/SP/G            HT/PER
                 (UTC) (F)     (DEG/KT/KT) (MB)    (FT/S)
W MID LAKE BUOY  1950   59 58   40/  8/  8 1015.8F   0
DEVILS ISLAND    2000   57      50/  8/  8 1016.1S
PORT WING        1900   59      20/ 16/ 17 1015.2F
SAXON HARBOR     1900   62     350/  3/  5 1014.9F
$$

LMZ867-665-643>646-032100-
LAKE MICHIGAN

STATION/POSITION TIME  TEMP    WIND        PRES    WAVE
                       AIR SEA DIR/SP/G            HT/PER
                 (UTC) (F)     (DEG/KT/KT) (MB)    (FT/S)
CHAMBERS ISLAND  1900   69     360/  8/  9 1014.6R
S GREEN BAY BUOY 2000   68 67   50/ 10/ 12 1015.3F
N MID LAKE BUOY  1950   68 66   40/  8/ 10 1013.3R   1/ 4
NORTHPORT PIER   1900   69     350/  6/  8 1013.9S
SISTER BAY       1911   69     350/ 14/ 16   N/A
ALGOMA LAKESHORE 1914          310/ 12/ 17   N/A
KEWAUNEE LAKESHO 1900   74     340/  4/ 10 1012.6F
SHEBOYGAN LAKESH 2000   64      10/ 11/ 12 1013.5R
PORT WASHINGTON  1900   67      30/  5/  7 1013.9
ATWATER BUOY     2000   60     320/  2/  4 1014.5F
MILWAUKEE LAKESH 1910   62      30/  6/  7   N/A
S MID LAKE BUOY  1950   75 73  250/  2/  2 1011.8F   1
KENOSHA   LAKESH 2000   87     250/ 13/ 16 1011.5F
$$

TC  - TEMPERATURE IN CELSIUS
VSB - VISIBILITY IN STATUTE MILES
WCI - WIND CHILL INDEX
HX  - HEAT INDEX




USA.gov is the U.S. government's official web portal to all federal, state and local government web resources and services.